This demonstration page uses our WeatherBlox Daily Observations layout. Learn more.

Left ArrowRight Arrow

Hourly Observations for October 12, 2015

Temp ( °F °C ) Dew Point ( °F °C ) Humidity (%) Winds ( mph kmh ) Pressure ( in mb ) Visibility ( mi km ) Precip ( " mm )
12:53 am 00:53 Clear with Mist and Fog 57 13.9 55 12.8 93 93 Calm 29.93 1014 6 10 0.00 0.00
1:53 am 01:53 Clear 56 13.3 54 12.2 93 93 Calm 29.93 1014 10 16 0.00 0.00
2:51 am 02:51 Mostly Clear 55 13 54 12 94 94 Calm 29.94 1014 8 13 0.00 0.00
2:53 am 02:53 Mostly Clear 56 13.3 53 11.7 90 90 Calm 29.93 1014 8 13 0.00 0.00
3:03 am 03:03 Mostly Clear with Mist and Fog 55 13 54 12 94 94 Calm 29.94 1014 2 3 0.00 0.00
3:10 am 03:10 Mostly Clear with Mist and Fog 54 12 54 12 100 100 Calm 29.94 1014 4 6 0.00 0.00
3:53 am 03:53 Cloudy with Mist and Fog 55 12.8 54 12.2 96 96 Calm 29.92 1013 1 2 0.00 0.00
3:56 am 03:56 Cloudy with Mist and Fog 55 12.8 54 12.2 96 96 Calm 29.94 1014 1 2 0.00 0.00
4:53 am 04:53 Mostly Cloudy with Fog 56 13.3 55 12.8 97 97 Calm 29.91 1013 1 1 0.00 0.00
5:53 am 05:53 Cloudy with Fog 56 13.3 55 12.8 97 97 Calm 29.91 1013 1 1 0.00 0.00
6:00 am 06:00 Mostly Cloudy with Fog 55 13 55 13 100 100 Calm 29.94 1014 0 0 0.00 0.00
6:53 am 06:53 Mostly Cloudy with Fog 56 13.3 55 12.8 97 97 SSE 3 6 29.92 1013 0 0 0.00 0.00
7:26 am 07:26 Mostly Cloudy with Fog 55 13 54 12 94 94 Calm 29.94 1014 1 1 0.00 0.00
7:53 am 07:53 Mostly Cloudy with Fog 55 12.8 54 12.2 96 96 Calm 29.94 1014 0 0 0.00 0.00
8:13 am 08:13 Cloudy with Mist and Fog 55 12.8 54 12.2 96 96 Calm 29.97 1015 1 1 0.00 0.00
8:25 am 08:25 Cloudy with Mist and Fog 55 12.8 54 12.2 96 96 Calm 29.94 1014 2 2 0.00 0.00
8:41 am 08:41 Cloudy with Mist and Fog 56 13.3 55 12.8 97 97 Calm 29.94 1014 3 5 0.00 0.00
8:53 am 08:53 Cloudy with Mist and Fog 56 13.3 55 12.8 97 97 Calm 29.93 1014 5 8 0.00 0.00
9:22 am 09:22 Cloudy with Mist and Fog 57 14 55 13 94 94 SW 3 6 29.94 1014 5 8 0.00 0.00
9:53 am 09:53 Cloudy with Mist and Fog 57 13.9 56 13.3 96 96 Calm 29.94 1014 3 5 0.00 0.00
10:18 am 10:18 Cloudy 57 14 55 13 94 94 SW 3 6 29.97 1015 7 11 0.00 0.00
10:39 am 10:39 Mostly Cloudy 61 16.1 57 13.9 87 87 SW 5 7 29.97 1015 10 16 0.00 0.00
10:53 am 10:53 Mostly Cloudy 63 17.2 58 14.4 84 84 SSW 3 6 29.94 1014 10 16 0.00 0.00
11:53 am 11:53 Cloudy 68 20 59 15 73 73 S 5 7 29.93 1014 10 16 0.00 0.00
12:53 pm 12:53 Mostly Cloudy 71 21.7 54 12.2 55 55 S 5 7 29.91 1013 10 16 0.00 0.00
1:53 pm 13:53 Mostly Cloudy 72 22.2 54 12.2 53 53 VRB 3 6 29.89 1012 10 16 0.00 0.00
2:53 pm 14:53 Sunny 75 23.9 53 11.7 46 46 W 7 11 29.85 1011 10 16 0.00 0.00
3:53 pm 15:53 Sunny 76 24.4 52 11.1 43 43 SSW 9 15 29.83 1010 10 16 0.00 0.00
4:53 pm 16:53 Sunny 76 24.4 53 11.7 45 45 VRB 7 11 29.83 1010 10 16 0.00 0.00
5:53 pm 17:53 Sunny 75 23.9 54 12.2 48 48 S 6 9 29.82 1010 10 16 0.00 0.00
6:53 pm 18:53 Sunny 73 22.8 55 12.8 53 53 SSW 5 7 29.82 1010 10 16 0.00 0.00
7:53 pm 19:53 Clear 66 18.9 58 14.4 75 75 Calm 29.82 1010 10 16 0.00 0.00
8:53 pm 20:53 Clear 65 18.3 59 15 81 81 Calm 29.83 1010 10 16 0.00 0.00
9:53 pm 21:53 Clear 65 18.3 57 13.9 76 76 SW 3 6 29.82 1010 10 16 0.00 0.00
10:53 pm 22:53 Clear 64 17.8 56 13.3 75 75 Calm 29.82 1010 10 16 0.00 0.00
11:53 pm 23:53 Partly Cloudy 61 16.1 57 13.9 87 87 Calm 29.81 1010 10 16 0.00 0.00

Powered by AerisWeather